FW6155 Weather Reports


Display with metric or nautical units.
time (UTC)temp
F
wind
direction
speed
MPH
gust
MPH
rain 1hr
in
rain 24hr
in
rain mn
in
humidity
%
barometer
mb
20240619003039 64 0.0 0.0 0.00 0.03 0.00 60 1016.6
20240619001547 64 0.0 0.0 0.00 0.03 0.00 60 1016.8
20240619000057 65 0.0 0.0 0.00 0.03 0.00 57 1016.8
20240618234537 65 0.0 0.0 0.00 0.04 0.00 57 1017.0
20240618233038 64 0.0 0.0 0.00 0.04 0.00 57 1017.2
20240618231541 64 0.0 0.0 0.00 0.04 0.00 59 1017.2
20240618230036 64 0.0 0.0 0.00 0.04 0.00 56 1017.3
20240618224534 64 0.0 0.0 0.00 0.06 0.00 56 1017.6
20240618223044 64 0.0 0.0 0.00 0.06 0.00 58 1017.7
20240618221550 64 0.0 0.0 0.00 0.06 0.00 60 1017.7
20240618220101 63 0.0 0.0 0.00 0.06 0.00 57 1017.9
20240618214543 63 0.0 0.0 0.00 0.06 0.00 59 1017.9
20240618213035 63 0.0 0.0 0.00 0.06 0.00 60 1018.2
20240618211535 63 0.0 0.0 0.00 0.06 0.00 60 1018.1
20240618210049 63 0.0 0.0 0.00 0.06 0.00 62 1018.3
20240618204535 62 0.0 0.0 0.00 0.06 0.00 62 1018.3
20240618203036 62 0.0 0.0 0.00 0.06 0.00 63 1018.4
20240618201534 62 0.0 0.0 0.00 0.06 0.00 64 1018.5
20240618200039 62 0.0 0.0 0.00 0.06 0.00 64 1018.6
20240618194542 61 0.0 0.0 0.00 0.06 0.00 66 1018.7
20240618193048 60 0.0 0.0 0.00 0.06 0.00 67 1019.0
20240618191539 60 0.0 0.0 0.00 0.06 0.00 68 1018.9
20240618190038 60 0.0 0.0 0.00 0.06 0.00 68 1019.0
20240618184540 60 0.0 0.0 0.00 0.06 0.00 67 1019.1
20240618183059 59 0.0 0.0 0.00 0.06 0.00 67 1019.2
20240618181538 59 0.0 0.0 0.00 0.06 0.00 67 1019.4
20240618180059 60 0.0 0.0 0.00 0.06 0.00 67 1019.4
20240618174545 60 0.0 0.0 0.00 0.06 0.00 66 1019.6
20240618173040 60 0.0 0.0 0.00 0.06 0.00 68 1019.7
20240618171536 60 0.0 0.0 0.00 0.06 0.00 70 1019.7
20240618170042 58 0.0 0.0 0.00 0.06 0.00 73 1019.7
20240618164545 57 0.0 0.0 0.00 0.06 0.00 73 1019.8
20240618163039 57 0.0 0.0 0.00 0.06 0.00 76 1019.7
20240618161539 55 0.0 0.0 0.00 0.06 0.00 77 1019.8
20240618160046 54 0.0 0.0 0.00 0.06 0.00 78 1019.9
20240618154538 54 0.0 0.0 0.00 0.06 0.00 78 1019.9
20240618153045 54 0.0 0.0 0.00 0.06 0.00 79 1020.0
20240618151539 54 0.0 0.0 0.00 0.06 0.00 80 1020.0
20240618150051 54 0.0 0.0 0.00 0.06 0.00 80 1020.0
20240618144539 54 0.0 0.0 0.00 0.06 0.00 82 1019.9
20240618143036 54 0.0 0.0 0.00 0.06 0.00 81 1019.9
20240618141543 53 0.0 0.0 0.00 0.06 0.00 81 1019.9
20240618140039 53 0.0 0.0 0.00 0.06 0.00 82 1019.8
20240618134533 52 0.0 0.0 0.00 0.06 0.00 84 1019.7
20240618133038 51 0.0 0.0 0.00 0.06 0.00 87 1019.7
20240618131544 51 0.0 0.0 0.00 0.06 0.00 88 1019.8
20240618130039 50 0.0 0.0 0.00 0.06 0.00 88 1019.8
20240618124537 50 0.0 0.0 0.00 0.06 0.00 87 1019.8
20240618123036 51 0.0 0.0 0.00 0.06 0.00 87 1019.9
20240618121545 51 0.0 0.0 0.00 0.06 0.00 86 1019.9
20240618120054 51 0.0 0.0 0.00 0.06 0.00 86 1019.8
20240618114533 51 0.0 0.0 0.00 0.06 0.00 86 1019.7
20240618113034 51 0.0 0.0 0.00 0.06 0.00 86 1019.7
20240618111537 51 0.0 0.0 0.00 0.06 0.00 85 1019.7
20240618110037 51 0.0 0.0 0.00 0.06 0.00 85 1019.8
20240618104541 51 0.0 0.0 0.00 0.06 0.00 85 1019.7
20240618103040 51 0.0 0.0 0.00 0.06 0.00 85 1019.7
20240618101547 52 0.0 0.0 0.00 0.06 0.00 85 1019.7
20240618100052 52 0.0 0.0 0.00 0.06 0.00 85 1019.8
20240618094541 52 0.0 0.0 0.00 0.06 0.00 85 1019.9
20240618093047 52 0.0 0.0 0.00 0.06 0.00 85 1019.8
20240618091544 52 0.0 0.0 0.00 0.06 0.00 84 1019.9
20240618090045 52 0.0 0.0 0.00 0.06 0.00 85 1019.8
20240618084537 52 0.0 0.0 0.00 0.06 0.00 86 1019.8
20240618083040 52 0.0 0.0 0.00 0.06 0.00 86 1019.8
20240618081551 52 0.0 0.0 0.00 0.06 0.00 86 1019.8
20240618080050 52 0.0 0.0 0.00 0.06 0.00 87 1019.7
20240618074536 52 0.0 0.0 0.00 0.06 0.00 88 1019.8
20240618073045 52 0.0 0.0 0.00 0.06 0.00 87 1019.9
20240618071543 52 0.0 0.0 0.00 0.06 0.00 88 1019.9
20240618070042 52 0.0 0.0 0.01 0.06 0.00 88 1020.0
20240618064623 52 0.0 0.0 0.01 0.06 0.06 88 1020.0
20240618063056 52 0.0 0.0 0.01 0.06 0.06 90 1019.9
20240618061540 52 0.0 0.0 0.01 0.06 0.06 90 1019.8
20240618060054 52 0.0 0.0 0.00 0.05 0.05 90 1019.8
20240618054539 52 0.0 0.0 0.00 0.05 0.05 90 1019.7
20240618053035 52 0.0 0.0 0.00 0.05 0.05 90 1019.7
20240618051534 52 0.0 0.0 0.01 0.05 0.05 90 1019.8
20240618050038 52 0.0 0.0 0.01 0.05 0.05 91 1019.8
20240618044542 52 0.0 0.0 0.01 0.05 0.05 91 1019.8
20240618043033 53 0.0 0.0 0.01 0.05 0.05 90 1019.6
20240618041539 53 0.0 0.0 0.00 0.04 0.04 90 1019.5
20240618040037 54 0.0 0.0 0.00 0.04 0.04 91 1019.4
20240618034602 55 0.0 0.0 0.00 0.04 0.04 91 1019.3
20240618033035 55 0.0 0.0 0.00 0.04 0.04 91 1019.3
20240618031542 55 0.0 0.0 0.00 0.04 0.04 90 1019.2
20240618030033 56 0.0 0.0 0.01 0.04 0.04 91 1019.2
20240618024538 56 0.0 0.0 0.01 0.04 0.04 90 1018.9
20240618023104 56 0.0 0.0 0.01 0.04 0.04 91 1018.8
20240618021538 57 0.0 0.0 0.01 0.04 0.04 90 1018.8
20240618020036 57 0.0 0.0 0.00 0.03 0.03 89 1018.7
20240618014535 57 0.0 0.0 0.00 0.03 0.03 87 1018.7
20240618013043 57 0.0 0.0 0.00 0.03 0.03 85 1018.5
20240618011535 57 0.0 0.0 0.00 0.03 0.03 85 1018.5
20240618010036 57 0.0 0.0 0.00 0.03 0.03 83 1018.5
20240618004552 57 0.0 0.0 0.00 0.03 0.03 86 1018.4